FENGYUN 2F

Last updated on Mon Oct 14 2024 00:02:17 GMT+0000 (Coordinated Universal Time)

1 38049U 12002A 24287.39083896 -.00000088 00000+0 00000+0 0 9993 2 38049 6.0297 72.8153 0002429 138.1762 233.3093 0.99135531 46741
UTC large
Height (km)
Speed (km/s)
/
Latitude / Longitude
Inclination (degrees)
Orbital Period (minutes)
Azimuth
Elevation
Range (km)
Doppler Factor

Next 0 passes for location: London (51.5072 / 0.1276)

Sorry there are no passes over London.